STARLINK-2034 (47352 NORAD) Tracking and Keplerian Element Data

This shows tracking and keplerian element data for the satellite.

Feedback or suggestion? Click here.




ElementValue
Catalog47352
NameSTARLINK-2034
Epoch Orbit1414
Epoch Day106.25002315
Epoch Year2021
RAAN170.2285
Inclination53.0507
Eccentricity0.0001059
Argument of Perigee90.2921
Mean Anonmoly75.5952
Mean Motion15.06394875
Decay Rate-0.00015764
L11 47352U 21005D 21106.25002315 -.00015764 00000-0 -10419-2 0 9999
L22 47352 53.0507 170.2285 0001059 90.2921 75.5952 15.06394875 14147

Live tracking and technical data element details for STARLINK-2034 (NORAD 47352). STARLINK-2034 can be tracked NOW for your location showing map with azimuth and elevation plus other details from your city location.

Track the satellite on the map from your city or location and see movement details for azimuth, elevation, latitude, longitude, range, height, and movement on the map or in text.







IsCatalogInMostPopularTable: catalog: 47352, numindb: 16
Update: records affected: 1



GetName: 47352 STARLINK-2034

Hit Count: updated at: Fri, 16 Apr 2021 10:57:19 GMT